Wind_Speed
51 47 46 48 53 57 56 57 57 55 53 52 50 48 45 41 38 35 33 32 29 28 28 28 28 27 27 27 29 30 31 31 30 34 34 29 25 25 29 24 24 26 25 25 24 23 24 24 24 24 26 27 28 26 25 23 21 20 17 15 14 14 13 12 11 9 9 10 11 12 11 12 13 13 13 13 13 13 13 13 13 13 13 13 12 13 13 13
49 48 48 49 53 56 56 57 58 57 54 52 50 49 46 42 39 37 35 34 32 30 30 30 29 28 26 25 26 28 29 29 30 33 30 29 28 27 28 25 24 26 27 27 24 24 24 24 23 23 25 27 28 27 25 23 21 20 19 16 14 14 12 11 12 10 8 10 11 11 11 12 13 13 14 13 12 12 12 13 13 13 13 13 13 13 13 13
48 48 49 51 53 56 56 57 58 57 55 52 51 49 46 43 40 39 37 37 35 32 31 30 30 29 28 27 25 26 26 25 30 33 29 30 32 30 26 21 21 23 25 27 25 24 25 25 24 23 26 27 28 27 25 24 21 20 19 16 14 13 11 11 13 10 8 10 11 11 12 13 13 14 14 13 13 13 13 13 13 12 11 12 13 14 14 13
47 47 49 52 54 56 56 57 57 57 56 52 50 49 46 44 41 40 39 38 36 33 32 31 31 29 29 28 26 25 23 23 27 29 29 29 32 33 27 17 18 22 23 26 26 26 26 26 25 25 26 27 27 28 26 24 22 20 19 16 14 13 11 12 12 10 9 10 10 11 12 13 12 13 14 14 13 13 13 14 13 13 13 13 13 14 14 14
46 46 49 53 54 55 56 56 57 56 55 52 50 48 46 44 42 41 41 40 37 34 33 32 31 29 29 28 26 23 22 21 19 23 30 28 29 34 27 17 18 22 24 26 26 26 27 26 26 26 27 27 27 27 26 25 22 19 19 17 15 13 12 13 13 10 9 9 9 10 11 11 11 12 13 13 12 13 15 16 16 16 16 15 15 15 15 14
45 46 49 53 53 54 55 55 55 54 53 52 49 48 45 44 43 42 42 41 39 36 35 34 32 31 30 28 26 24 22 17 10 18 31 28 30 33 27 20 19 23 25 26 25 25 26 27 27 27 27 28 27 27 27 25 23 19 19 18 16 14 13 13 13 11 10 9 8 9 10 11 11 11 12 12 13 15 16 16 16 16 15 15 14 14 14 14
44 47 50 52 54 54 54 54 54 53 52 51 49 48 46 44 43 43 42 42 40 38 37 34 34 32 31 30 28 25 21 16 9 16 27 28 33 35 25 20 20 24 26 26 26 25 25 27 27 27 26 27 27 28 26 24 23 21 19 18 17 14 13 13 12 11 11 9 9 9 9 10 10 11 11 12 14 15 14 15 15 14 13 13 12 12 13 14
44 47 50 52 54 53 53 53 53 52 51 51 49 47 46 44 44 43 43 43 41 40 38 36 35 33 32 31 29 25 19 17 13 12 21 25 32 35 23 20 22 25 26 26 26 25 24 25 25 25 25 27 27 27 26 23 22 22 20 18 18 16 14 14 12 11 11 10 10 10 9 9 10 11 12 14 15 15 15 15 14 14 13 13 12 12 13 13
44 46 50 52 53 53 52 52 52 51 50 50 48 46 46 44 44 43 43 44 43 42 40 38 38 35 34 31 30 26 17 17 16 11 17 21 29 34 23 21 24 25 26 25 26 26 26 25 24 23 23 25 27 26 26 24 22 23 21 18 18 17 16 15 13 12 11 11 11 10 10 9 9 10 12 15 16 14 15 15 13 14 14 14 14 14 14 14
44 47 49 51 52 52 51 51 51 50 49 48 46 45 45 43 43 43 44 45 44 43 42 40 40 38 35 31 31 27 16 19 21 13 18 23 28 30 23 22 25 26 26 26 26 26 25 24 22 21 22 23 25 26 25 24 23 23 22 20 18 18 17 16 15 13 11 12 12 12 11 11 11 10 12 15 15 13 14 14 14 14 14 15 16 16 16 16
45 47 49 50 51 51 51 51 50 50 48 47 45 44 43 42 42 42 43 45 45 45 44 42 41 38 35 32 31 25 16 21 24 17 19 26 29 27 24 24 26 27 27 26 26 25 24 24 23 21 21 23 25 25 25 25 24 22 21 21 20 19 18 18 17 15 13 13 13 13 13 13 14 11 11 14 14 13 14 14 14 14 15 16 17 17 17 17
44 46 48 49 51 52 52 51 50 49 47 46 44 43 41 41 41 42 43 45 46 46 45 45 42 38 35 33 31 25 21 23 24 21 20 27 31 28 26 27 28 28 27 26 25 25 25 25 24 22 21 23 24 23 23 25 23 22 21 21 22 21 20 20 19 17 16 15 14 14 15 17 16 12 10 13 14 14 14 14 15 16 17 17 18 18 18 18
44 45 47 49 51 52 52 52 50 48 47 45 43 41 40 40 41 42 44 46 47 47 47 46 43 40 37 35 30 26 26 25 24 24 21 25 30 28 28 29 28 28 27 26 26 26 26 24 24 23 21 22 23 22 23 24 23 22 22 21 22 22 22 22 20 20 18 17 16 15 15 17 16 13 12 13 14 14 14 15 16 17 18 18 19 18 18 19
44 45 47 49 51 52 52 52 51 49 47 45 42 41 40 40 41 42 44 45 47 48 47 45 43 40 38 34 29 28 30 28 24 25 22 23 29 28 29 29 27 27 27 26 27 27 25 24 24 23 22 21 22 23 22 23 24 23 22 21 23 22 23 25 22 21 21 19 19 17 17 19 16 14 14 14 14 15 14 15 17 17 18 19 19 19 19 19
44 46 47 49 51 52 52 52 51 49 47 44 42 41 41 40 41 41 42 43 45 46 45 44 42 40 36 33 31 31 33 30 26 26 23 23 28 28 28 28 27 27 26 26 27 27 25 24 24 24 24 22 21 22 21 22 24 24 21 22 25 23 22 26 24 23 23 21 21 19 19 21 18 16 15 14 15 16 15 16 17 18 19 20 20 20 20 20
44 45 47 49 52 52 52 52 51 48 46 43 42 42 41 40 40 41 41 42 42 42 42 41 40 37 35 34 33 34 36 33 28 27 25 24 27 28 27 27 27 26 27 27 26 26 25 25 25 25 25 24 22 22 21 21 24 26 24 23 26 26 24 24 24 25 25 24 24 23 21 20 18 17 17 16 16 16 16 17 18 19 19 20 21 21 21 21
44 45 47 49 52 52 52 52 50 47 45 43 42 41 40 40 41 41 41 41 40 40 39 38 37 37 35 34 36 37 37 33 29 29 27 24 26 27 26 27 28 27 27 27 27 26 25 26 26 26 26 25 23 24 22 22 26 27 26 24 25 27 27 25 24 25 26 26 26 26 26 24 19 16 16 16 16 17 17 18 19 20 20 21 21 21 21 22
44 46 47 50 52 52 52 51 48 46 44 43 42 41 41 41 41 41 41 41 41 40 38 38 39 38 35 38 40 38 36 32 29 30 29 25 25 27 26 26 27 28 28 27 27 27 26 26 26 26 27 26 25 27 25 25 28 27 26 26 26 27 27 27 26 25 25 26 26 27 28 27 23 20 17 16 17 17 18 19 21 21 21 21 21 21 21 22
43 45 48 50 51 52 52 50 47 46 45 43 43 42 42 42 41 41 42 43 44 44 43 44 46 43 35 38 40 35 33 32 30 31 30 26 26 27 27 26 27 28 28 29 28 28 28 27 27 28 30 31 29 29 28 26 25 24 24 27 28 27 27 27 26 25 23 23 25 27 28 27 24 23 21 19 18 19 20 21 21 21 21 22 22 21 21 21
43 46 49 50 51 52 51 49 47 46 45 45 46 47 47 47 47 46 46 47 47 48 48 46 47 42 31 30 36 34 32 32 31 31 31 27 26 28 28 28 27 27 28 29 29 29 28 28 31 32 32 31 28 26 25 23 21 21 21 22 25 25 24 23 23 23 23 23 24 25 27 27 25 23 22 22 22 22 22 22 21 20 21 21 22 21 21 20
43 47 49 50 52 52 50 49 47 45 46 46 47 48 50 52 53 54 53 51 48 47 47 42 41 39 27 23 31 33 32 33 31 30 30 27 27 28 29 30 29 29 29 28 28 28 29 30 32 31 29 26 25 24 23 23 21 19 19 19 20 21 21 20 19 21 22 23 26 25 27 29 26 23 21 23 26 24 22 22 21 21 20 20 21 20 20 20
44 48 50 51 52 51 49 48 47 46 47 46 47 47 48 49 50 50 51 51 49 45 43 39 38 39 27 20 28 33 33 34 33 31 30 28 28 30 31 32 31 31 30 28 28 27 29 31 31 27 25 24 25 25 24 23 22 19 18 17 17 18 19 19 19 20 20 22 24 25 27 29 26 24 23 23 26 25 23 23 22 21 21 20 20 19 20 20
46 50 51 51 52 51 49 49 48 48 48 47 48 47 45 46 43 40 42 44 45 42 39 36 36 36 27 20 27 33 33 34 34 33 31 29 29 31 31 32 32 31 30 31 30 30 29 29 28 25 24 25 25 25 24 23 22 20 18 17 17 18 17 17 19 20 21 21 22 23 26 28 26 25 25 24 25 26 24 23 23 23 22 21 20 19 20 20
47 50 51 52 52 51 49 49 49 49 49 47 47 46 44 44 40 38 40 40 41 40 37 33 33 34 25 19 25 31 32 33 33 33 32 30 29 30 30 30 30 30 30 31 30 31 29 26 25 25 23 24 25 25 25 24 23 22 21 19 17 17 15 16 16 17 18 19 21 20 21 27 29 27 26 24 25 26 25 24 24 24 24 22 21 21 20 21
47 50 51 52 53 52 51 51 51 50 49 48 48 46 44 44 40 38 40 39 37 38 36 31 32 33 26 19 23 29 31 31 31 32 32 30 29 30 30 29 29 31 30 30 29 29 27 23 22 25 25 25 25 26 26 24 24 23 22 21 18 16 15 14 14 14 14 15 19 17 13 16 23 24 24 25 25 25 24 25 25 24 24 24 23 22 23 23
47 50 51 53 54 53 53 53 52 50 50 49 48 46 45 44 39 37 38 34 32 36 35 30 31 34 29 22 23 27 28 29 30 30 31 30 29 29 30 30 30 30 29 29 27 26 27 24 22 23 25 26 25 26 25 25 24 22 21 21 20 19 17 15 14 13 10 10 13 16 12 10 15 17 18 21 23 24 25 24 24 25 25 24 24 24 25 25
47 50 51 54 55 55 55 55 53 52 52 50 48 46 45 43 37 37 33 19 19 34 36 33 32 34 31 24 24 28 28 29 31 30 31 31 30 29 30 32 32 31 30 28 26 26 28 29 25 23 24 26 27 26 25 24 23 21 20 19 18 18 17 15 15 14 12 10 9 13 14 11 16 19 17 16 18 20 22 23 23 25 25 24 25 26 26 26
46 49 52 54 54 55 54 52 52 53 50 49 49 45 45 42 36 37 27 7 12 31 36 35 33 32 33 27 25 30 28 29 33 33 33 33 32 31 29 31 32 31 31 30 30 29 28 30 28 25 24 25 27 25 23 23 22 21 19 17 15 15 15 14 14 14 12 10 9 12 13 9 14 21 20 18 19 19 18 19 21 23 24 25 25 25 26 26
46 49 52 53 55 54 51 49 49 49 48 48 47 44 44 39 34 32 19 4 15 30 34 36 34 33 36 32 28 29 27 28 33 33 34 34 33 33 30 29 29 29 29 30 31 30 27 27 28 26 24 24 24 24 23 22 22 20 17 15 14 14 13 12 11 12 10 9 10 13 14 9 11 20 21 19 20 20 19 17 20 21 21 23 24 25 25 25
45 49 52 54 56 54 52 49 47 47 48 47 46 44 41 36 34 25 9 9 21 28 33 38 36 35 39 38 34 31 28 28 32 33 34 35 34 33 31 27 26 26 28 29 29 27 25 24 26 27 26 24 21 22 24 23 21 19 16 16 15 13 12 11 10 9 6 7 10 13 15 11 8 13 17 20 20 19 19 19 20 21 20 20 21 22 24 24
44 49 52 54 54 54 54 51 49 49 48 48 47 45 39 37 35 18 5 17 25 26 35 41 39 37 39 42 39 35 31 28 31 35 36 37 35 35 33 28 27 25 25 28 28 27 25 23 24 27 28 26 21 20 22 23 23 20 18 18 16 11 9 8 8 8 5 4 7 13 16 14 12 9 7 11 15 15 16 18 20 21 20 20 20 21 22 23
42 47 49 50 50 51 51 49 50 50 48 50 48 45 43 36 28 19 14 21 22 25 38 43 43 42 40 42 41 39 36 30 31 35 36 38 37 38 37 33 33 27 23 27 28 26 26 25 25 25 26 26 22 20 21 22 24 22 21 21 15 7 6 6 4 4 6 5 6 11 12 13 21 21 11 8 9 10 13 15 16 18 19 20 22 23 23 23
41 45 47 48 48 49 48 47 49 49 48 51 47 47 45 28 20 30 30 25 21 27 40 43 45 44 40 41 40 39 38 32 32 33 34 38 37 38 38 35 36 32 26 28 28 23 19 19 24 24 23 25 24 23 25 26 27 26 25 25 17 7 4 5 3 1 4 7 9 10 8 10 19 22 18 17 16 16 17 16 15 16 16 18 20 21 22 23
39 43 46 48 48 48 49 48 49 49 49 51 49 48 39 22 24 38 36 28 23 28 38 42 45 44 40 41 40 39 39 33 32 33 33 36 37 37 38 35 36 35 31 30 29 27 19 14 23 26 23 24 26 26 26 26 28 28 27 26 23 16 7 4 4 2 1 4 9 11 6 7 9 5 7 15 20 23 22 18 17 17 16 17 17 18 19 20
37 41 45 48 49 49 50 49 50 51 50 52 52 48 39 31 36 42 40 35 28 29 37 40 44 46 41 41 40 39 40 36 34 33 32 36 37 38 40 38 38 37 34 29 27 30 26 17 23 29 26 24 26 27 25 24 26 28 28 26 26 23 12 4 4 5 4 4 6 11 10 11 11 6 3 5 11 18 20 19 19 19 19 18 18 18 19 18
36 40 44 47 48 50 51 51 51 52 52 54 53 49 48 45 42 43 46 43 33 33 40 38 41 46 42 40 40 39 40 37 35 35 33 35 36 37 38 39 39 39 37 32 27 27 25 18 19 26 27 25 25 27 26 24 24 27 30 30 28 26 17 8 4 4 4 2 5 9 12 15 13 9 9 9 7 8 10 12 15 18 20 19 19 19 17 16
38 41 45 47 48 50 52 52 53 53 53 56 55 53 55 48 40 40 45 44 34 30 39 40 39 44 44 41 40 41 41 36 35 37 35 34 34 36 38 37 38 39 37 35 31 28 26 20 17 22 26 25 24 26 26 26 25 25 31 33 28 21 18 12 4 2 2 2 4 9 14 17 13 8 9 13 13 13 12 11 10 14 20 21 21 19 17 15
42 42 44 46 48 51 53 52 54 55 54 56 56 55 53 44 38 38 41 44 35 27 35 41 39 43 46 44 43 43 41 37 36 38 36 34 33 34 38 37 37 38 38 36 32 29 27 20 15 20 26 26 25 26 25 27 27 25 27 31 25 14 14 16 8 2 3 3 2 7 13 17 20 17 11 9 13 18 19 17 13 14 20 23 21 18 16 15
43 42 42 45 48 50 53 54 56 57 57 59 58 53 49 45 41 38 37 41 37 29 32 38 39 42 45 46 46 45 43 40 40 40 36 35 33 33 36 37 35 36 38 38 34 30 28 19 14 19 26 26 26 28 29 30 31 26 22 26 26 16 12 17 15 6 4 3 2 3 6 12 20 22 17 13 12 13 14 14 13 14 20 24 21 18 16 15
45 43 42 46 49 50 52 54 57 60 59 62 61 53 49 46 42 38 34 37 39 33 31 34 36 39 42 45 45 45 46 44 43 42 39 37 36 34 35 36 36 36 36 38 37 32 28 22 16 19 24 25 26 30 33 34 34 32 27 27 29 24 15 14 17 15 8 3 2 2 3 6 9 8 8 13 16 18 17 15 14 15 20 24 22 18 16 16
47 43 42 46 50 51 54 55 59 62 63 62 59 51 47 45 41 38 35 36 39 38 34 32 32 34 38 42 42 43 46 46 45 44 42 43 41 38 37 37 36 36 37 39 41 36 29 25 21 20 25 28 30 32 34 34 34 35 33 32 32 31 23 12 9 17 17 8 4 3 3 7 9 6 5 10 14 17 15 12 12 14 19 22 22 19 18 18
49 45 44 47 50 52 56 59 60 63 64 61 57 51 45 42 40 39 38 36 38 39 37 33 31 30 31 36 39 41 42 45 46 44 44 47 47 44 41 39 36 35 36 38 39 40 35 27 23 22 25 29 29 30 32 33 34 35 34 33 31 31 30 20 11 16 20 15 10 5 4 11 15 10 8 10 12 12 11 10 11 13 16 20 21 20 19 19
51 48 45 46 49 52 56 60 62 64 64 61 57 51 45 40 38 39 40 38 37 39 38 36 34 32 30 31 35 38 40 42 44 45 46 46 47 45 41 39 36 33 35 37 38 40 36 28 23 19 19 25 27 27 29 31 33 34 35 36 34 33 35 31 22 17 17 17 14 6 4 15 19 16 15 15 13 13 13 12 12 13 16 19 20 20 19 17
52 49 47 45 46 51 56 61 65 67 65 61 55 49 45 41 38 39 41 40 38 38 39 38 37 35 33 30 30 33 36 37 39 43 46 45 44 44 41 39 36 33 35 36 37 38 33 29 26 15 7 11 16 16 21 28 33 36 38 38 38 37 36 33 27 18 13 17 18 9 9 23 25 21 20 17 15 14 13 13 15 16 18 20 20 19 18 16
50 47 47 47 47 51 56 60 65 68 66 61 55 49 45 43 39 38 40 41 40 39 38 38 37 36 35 32 29 28 30 33 35 38 43 45 44 42 41 40 36 33 33 32 35 38 34 33 34 23 11 8 11 14 22 31 37 39 40 40 40 40 38 35 30 21 15 20 22 19 22 32 31 24 17 10 9 11 11 14 17 18 21 22 21 19 18 17
48 44 45 48 49 52 57 59 61 65 66 62 56 50 47 44 41 38 37 39 41 40 39 37 36 36 35 34 32 30 30 32 33 33 37 41 43 42 40 39 36 32 31 31 33 36 35 35 37 36 32 30 30 33 36 38 39 39 40 41 41 41 41 38 31 27 27 26 27 33 37 36 32 25 15 9 8 9 11 14 17 19 22 22 21 21 20 20
43 42 46 50 48 50 57 58 59 64 66 63 58 54 50 47 44 40 37 38 40 41 39 38 37 37 37 37 36 33 32 32 33 32 31 33 38 39 38 38 36 32 30 31 32 33 34 34 35 38 40 40 39 39 38 38 39 38 38 39 41 42 43 41 36 37 37 26 24 37 42 39 37 30 20 15 12 13 14 15 15 19 22 22 21 21 21 21
41 40 46 53 52 54 61 63 61 64 64 61 57 54 52 50 47 45 42 40 40 41 40 39 39 39 39 39 38 36 33 32 33 33 30 29 32 34 35 35 34 33 31 30 31 33 33 34 36 37 38 40 39 37 36 36 36 37 37 37 39 41 43 43 41 42 42 33 30 38 40 41 42 37 31 25 17 15 15 14 14 17 21 21 20 19 20 22
42 41 43 48 50 54 62 64 61 61 61 59 55 51 52 53 51 49 47 44 42 43 42 42 42 41 39 38 38 38 37 36 35 35 33 30 29 29 31 31 32 34 32 30 32 34 33 33 34 35 36 38 38 37 37 35 34 35 36 37 37 38 39 40 39 40 42 41 40 40 40 44 43 37 35 29 20 19 19 17 18 19 20 20 19 19 21 22
42 41 43 46 46 47 53 59 60 59 58 57 54 50 50 52 52 50 48 46 46 46 45 45 43 42 41 39 38 39 39 39 38 37 35 34 31 29 28 29 30 33 34 32 32 34 35 33 33 34 35 36 37 38 38 37 34 34 34 35 36 35 35 37 37 39 44 45 43 42 46 48 43 39 37 32 26 25 23 21 22 21 20 20 20 22 23 24
41 42 44 47 47 44 46 53 59 58 55 56 57 53 50 50 51 50 47 46 47 47 47 46 43 41 41 39 39 39 37 36 35 34 32 32 31 29 27 26 26 29 34 35 34 35 36 34 33 34 32 32 36 37 38 38 34 32 33 34 35 36 37 40 41 41 44 44 42 44 47 47 43 41 40 37 32 29 26 25 25 25 25 25 26 27 27 28
38 43 45 47 49 47 45 49 55 56 55 58 59 56 51 49 48 48 46 44 45 45 44 44 43 41 41 41 40 37 35 33 31 29 27 26 25 25 25 24 23 24 28 33 35 37 37 36 37 35 30 31 35 35 38 35 24 25 36 40 40 42 43 44 44 43 42 42 42 44 47 46 45 42 40 38 34 30 28 27 27 28 29 29 30 30 31 32
Wind_Direction
214 210 206 205 203 203 204 207 209 207 205 206 208 210 210 210 210 211 212 213 212 210 209 207 207 206 205 208 211 215 221 222 216 216 214 205 203 190 180 185 192 197 203 202 198 193 189 187 188 187 186 186 186 186 185 186 187 190 194 197 205 207 203 201 198 199 211 214 207 202 201 203 208 204 200 201 200 200 201 201 201 198 196 197 195 193 194 196
212 210 206 204 202 202 203 205 208 207 206 205 206 209 210 209 210 211 212 211 212 210 209 208 208 209 208 211 215 218 225 228 225 224 219 205 196 183 182 190 192 196 198 196 196 194 191 190 190 191 190 188 188 188 187 189 190 193 196 199 206 206 203 199 194 199 205 195 190 191 195 199 205 204 201 201 199 199 200 200 202 199 195 195 194 194 195 196
212 209 204 203 202 201 202 204 207 207 207 206 205 208 209 209 209 211 212 211 211 210 208 208 209 211 211 215 219 220 225 230 230 226 219 211 201 182 180 192 196 197 193 191 193 194 192 191 192 195 194 191 191 191 191 192 193 196 199 202 205 203 202 198 195 199 195 186 182 183 188 194 199 200 196 195 197 195 194 197 201 200 194 192 194 195 196 196
212 206 201 201 201 201 202 203 205 206 206 206 205 207 208 208 209 209 211 212 212 210 207 207 209 210 213 218 219 219 223 231 234 223 213 214 205 186 177 188 200 197 192 190 192 193 193 194 194 196 196 195 193 192 194 195 196 199 201 204 202 200 201 196 196 198 195 190 183 183 187 191 196 197 193 192 193 191 189 192 195 196 191 188 193 196 196 196
211 203 198 199 200 201 201 202 204 205 205 206 205 205 207 206 207 208 210 212 212 210 205 205 208 209 212 214 214 218 222 231 241 219 208 212 202 185 177 190 203 197 194 193 193 193 194 196 195 196 197 197 195 194 196 196 198 202 203 202 199 200 200 195 196 197 197 195 186 187 189 190 192 192 192 191 189 190 190 189 190 193 188 185 190 193 194 195
212 201 197 198 200 201 202 202 203 204 204 205 204 204 205 205 206 208 210 212 211 208 203 203 205 206 207 207 210 217 220 225 233 202 202 208 197 182 179 195 204 197 193 194 196 196 196 197 196 196 197 198 197 197 197 197 200 204 205 203 199 201 200 196 197 199 201 196 187 187 190 193 189 187 189 187 189 195 194 190 190 192 189 189 193 190 190 192
213 200 196 197 199 201 201 201 202 202 203 204 204 203 204 204 207 209 210 211 210 205 201 202 203 203 202 203 206 213 219 215 202 192 199 207 195 180 180 196 204 200 193 193 197 198 199 198 197 196 197 200 199 198 198 200 202 205 207 204 201 202 202 201 201 204 208 202 198 194 191 193 189 187 185 184 196 198 196 195 191 189 189 194 198 194 191 191
210 200 196 196 198 200 200 200 200 201 201 203 202 202 204 205 207 209 209 209 207 203 200 201 203 201 200 203 205 211 219 204 190 192 203 213 194 179 183 198 203 202 195 194 196 198 202 200 198 196 199 202 201 200 199 200 205 206 207 206 204 205 205 206 206 209 211 210 212 207 199 197 193 190 184 190 201 198 196 199 191 185 187 192 197 199 197 195
208 201 196 195 198 199 198 198 198 199 200 201 200 201 203 204 206 206 205 205 204 201 199 201 203 201 201 203 205 213 220 198 191 185 194 207 189 178 190 203 204 203 195 194 194 197 203 201 198 198 201 204 202 202 201 202 206 207 207 207 207 209 209 210 211 213 214 217 221 217 213 209 201 192 190 202 207 200 199 201 194 188 187 189 194 198 200 199
206 201 196 195 197 196 196 196 196 196 197 198 198 199 200 201 202 202 202 202 202 200 200 202 203 202 202 204 207 214 215 198 201 194 184 189 182 180 194 204 204 201 195 195 195 197 200 199 198 199 204 207 205 204 202 203 207 207 207 209 209 212 213 214 216 218 218 221 225 227 226 221 213 200 198 211 212 204 203 202 198 194 191 193 195 198 200 201
206 200 196 194 194 194 194 194 194 194 194 195 195 196 198 199 199 200 201 201 201 200 201 204 205 204 204 205 210 216 214 201 204 205 193 186 186 191 196 202 203 199 197 196 195 197 197 196 197 198 204 208 206 205 204 205 208 207 208 212 213 215 216 218 220 223 224 226 229 231 234 231 221 205 201 215 214 207 205 203 201 197 196 199 198 201 202 204
205 200 196 194 192 191 192 192 191 191 192 194 195 196 197 198 199 199 200 200 201 201 203 206 206 206 207 210 215 221 217 205 203 209 202 190 195 201 198 200 200 198 198 196 195 196 195 195 195 197 204 208 206 205 205 206 208 208 208 213 216 219 220 221 222 226 228 230 234 236 239 237 223 206 206 218 218 212 208 205 204 201 201 202 202 204 205 206
205 202 196 193 190 190 191 189 189 190 192 194 195 196 197 198 198 198 199 200 201 202 205 208 209 209 213 218 220 220 214 205 202 208 206 195 196 199 197 198 198 198 199 197 195 193 193 194 194 196 202 207 206 205 205 204 206 209 210 213 216 220 222 223 224 227 230 232 236 238 240 240 227 215 217 221 221 217 213 210 209 206 205 205 205 206 207 209
206 203 196 192 190 189 189 187 188 189 192 193 193 194 196 196 196 197 198 200 202 204 207 209 212 215 220 223 218 213 207 202 203 205 205 199 194 192 193 196 197 198 198 198 197 191 189 191 192 195 199 204 205 205 206 202 204 206 207 211 215 217 221 224 224 227 230 232 237 239 242 243 234 226 225 224 228 222 215 215 214 212 210 209 210 209 210 211
207 203 196 192 189 187 187 187 187 189 191 192 191 192 193 194 194 195 196 199 202 206 209 212 215 218 219 218 212 208 203 202 206 202 201 198 193 192 192 195 197 197 197 198 197 192 188 189 193 195 197 201 202 203 205 201 203 204 201 207 212 214 220 224 224 228 231 234 238 239 242 244 236 229 227 225 229 226 219 217 217 217 214 212 213 213 213 213
209 205 197 192 188 186 185 186 187 189 190 189 189 190 190 191 191 192 194 197 200 204 207 210 212 210 210 210 208 205 201 204 207 200 198 197 193 192 193 195 197 196 196 196 196 193 188 188 193 196 197 200 199 199 200 198 200 202 202 207 211 213 219 223 224 229 232 235 238 238 240 244 239 230 227 226 227 227 223 220 219 220 219 217 216 217 217 216
211 206 199 192 187 185 184 186 187 188 187 186 187 187 187 188 188 190 192 194 197 199 201 202 202 202 204 206 204 203 201 204 206 199 197 197 194 193 194 196 196 195 195 195 195 193 191 191 193 196 198 201 200 197 195 194 195 197 201 207 214 216 219 222 225 229 232 236 239 241 243 243 240 233 228 229 229 229 225 222 221 221 222 223 220 220 219 219
209 205 198 190 185 183 183 185 186 186 185 184 185 184 184 184 185 187 189 191 192 193 194 195 195 197 203 205 202 201 200 201 202 197 196 197 194 193 193 196 196 194 194 195 195 194 194 195 196 197 198 199 201 199 198 200 200 199 202 209 216 219 220 223 226 229 232 235 239 242 245 244 241 238 234 232 230 230 228 225 224 223 225 227 225 223 220 220
205 201 195 188 184 182 183 184 184 184 183 182 182 182 181 181 182 185 187 189 188 188 189 192 193 194 200 204 201 197 196 196 195 193 196 197 194 193 192 193 195 196 195 196 196 196 196 197 198 201 202 201 201 201 205 211 213 212 213 215 218 219 222 225 227 231 234 238 241 243 246 246 242 240 240 239 234 229 228 227 226 226 227 229 230 228 224 222
199 195 191 185 182 181 181 182 183 182 182 183 183 181 180 179 179 181 185 188 189 190 191 193 194 193 198 203 200 195 193 192 191 192 194 195 194 193 192 191 193 197 199 199 197 197 198 201 203 204 204 205 205 206 208 214 217 218 220 222 223 223 226 228 230 235 237 240 243 244 248 248 243 238 240 243 239 229 227 228 227 228 229 231 233 232 229 226
193 190 187 184 181 180 180 181 181 181 183 185 185 185 185 183 183 183 183 184 188 191 192 193 192 193 197 201 198 195 194 191 190 191 193 193 193 193 193 192 192 195 199 201 201 199 200 206 209 208 207 207 208 210 210 213 215 214 216 219 224 226 228 230 230 233 236 239 243 245 247 248 244 240 237 240 241 234 228 230 229 229 231 233 234 232 231 227
188 187 185 182 180 178 179 181 180 181 183 185 186 188 189 188 190 189 184 181 184 188 191 191 191 192 194 195 194 193 194 193 189 190 192 192 192 194 195 194 194 196 197 198 201 202 205 209 210 209 209 208 209 211 210 212 214 212 212 212 217 221 225 229 231 232 235 239 244 247 249 250 249 246 240 237 241 240 235 233 231 232 233 233 234 231 229 225
185 185 183 181 179 177 179 180 180 182 184 185 187 188 187 188 189 190 187 183 182 186 190 192 191 190 191 191 191 191 193 194 192 190 191 193 194 195 197 197 196 197 198 199 200 203 208 212 210 208 209 209 209 212 212 213 215 214 211 209 212 216 219 227 230 232 235 239 245 250 255 254 250 247 241 236 239 241 240 237 233 233 235 235 235 231 229 226
185 184 183 180 178 177 178 179 181 183 184 184 185 185 185 185 184 184 186 183 182 186 190 193 193 190 189 190 191 191 191 194 196 193 192 195 195 196 199 200 200 200 201 203 204 206 210 211 209 209 209 210 210 212 212 214 215 216 215 215 217 218 219 227 233 236 238 243 247 252 263 261 252 248 244 239 238 240 241 240 237 235 236 236 237 235 232 228
186 184 182 179 177 177 178 180 183 183 183 183 182 182 182 182 182 182 183 181 180 185 188 190 191 189 188 188 191 193 191 192 196 196 195 195 196 198 198 199 203 204 204 205 207 211 213 211 209 210 210 210 211 214 214 214 217 219 220 219 220 221 223 228 232 236 238 242 246 247 260 266 256 250 247 242 239 239 239 240 240 239 237 236 236 236 235 232
186 184 182 180 178 178 179 182 182 181 181 181 180 180 180 180 179 180 180 177 179 186 187 186 187 186 185 184 186 188 190 193 195 197 198 196 197 200 199 199 202 206 206 205 207 212 214 212 211 211 212 212 211 214 215 215 217 220 222 221 221 222 225 229 228 227 227 233 244 240 236 259 263 252 246 243 240 240 240 240 241 242 241 238 236 235 236 236
187 184 182 181 180 180 182 182 181 181 180 180 179 178 179 179 177 177 174 167 185 191 188 185 185 186 185 181 180 182 188 192 191 194 199 199 199 201 202 202 201 203 204 203 205 211 212 211 211 211 212 214 215 215 215 215 218 222 223 222 222 225 228 231 226 221 223 228 240 239 234 254 265 252 241 239 237 237 240 240 241 243 243 241 239 237 237 237
187 185 182 181 181 182 183 182 182 182 180 178 177 176 178 177 175 175 169 145 190 190 189 188 185 185 185 181 179 184 189 190 189 191 196 200 201 201 203 207 205 204 203 203 206 210 211 211 212 212 212 215 217 218 217 217 219 222 225 222 219 220 221 223 221 219 225 234 240 240 236 249 264 256 248 243 241 238 238 240 241 243 242 242 242 241 240 238
187 185 184 182 182 183 182 183 183 181 179 177 175 175 176 174 172 171 171 180 183 184 190 189 185 184 185 184 183 185 189 191 193 192 192 198 202 202 204 206 208 208 205 208 211 212 212 212 214 215 217 219 219 217 217 217 219 219 220 217 209 206 205 204 208 212 222 236 240 241 238 242 268 265 254 246 245 240 237 238 241 242 241 240 242 243 242 242
188 186 185 184 183 182 180 182 182 179 178 176 174 173 172 169 167 166 176 198 180 182 188 188 188 185 183 186 187 186 188 191 195 194 192 195 200 203 204 203 206 210 210 211 214 215 214 213 214 215 217 220 219 217 215 214 215 213 208 201 192 188 189 190 200 206 222 242 237 238 237 235 266 275 261 250 248 245 238 235 238 241 241 241 243 243 243 243
190 187 187 186 184 183 181 179 178 179 178 175 173 171 167 166 169 168 186 187 179 181 185 187 189 186 185 189 188 187 189 189 193 195 193 194 197 200 201 198 197 202 210 211 211 215 216 214 216 216 217 216 213 212 212 211 210 206 201 192 178 165 170 184 199 203 216 237 224 231 233 228 234 254 268 249 242 241 238 233 235 239 241 241 242 243 244 244
191 188 187 187 186 184 182 179 178 178 177 174 171 168 166 165 174 188 187 179 181 186 186 188 189 188 188 190 190 190 190 189 192 196 197 195 196 199 200 200 196 191 197 204 203 206 211 214 215 216 218 215 210 204 200 203 205 204 198 187 170 145 161 188 194 207 234 237 214 220 222 226 240 246 245 227 223 231 234 231 231 232 235 236 237 239 242 243
191 189 188 188 186 184 182 180 178 177 176 173 169 168 168 164 185 197 186 177 186 190 189 190 190 189 188 189 192 192 191 193 194 195 200 200 198 199 201 204 203 198 197 199 197 195 200 213 214 213 214 212 209 205 199 198 199 200 197 188 177 155 159 196 189 231 259 234 216 216 220 243 254 257 251 238 235 240 236 228 225 227 229 232 232 234 237 239
191 190 189 188 185 183 181 179 179 178 176 173 169 168 170 176 197 196 187 183 186 186 188 190 188 187 188 191 193 192 190 193 196 196 199 200 200 200 201 203 205 207 205 198 196 196 194 208 213 210 211 210 208 209 212 211 203 199 201 198 194 187 179 188 191 202 204 184 198 200 207 245 241 245 253 239 233 234 234 228 224 227 229 231 231 231 232 234
190 190 191 188 185 182 181 179 178 177 175 174 171 171 177 191 198 194 191 189 184 180 185 188 188 186 188 193 194 194 193 191 193 196 199 201 203 204 204 204 204 207 207 198 195 199 199 207 211 208 208 210 207 207 213 213 202 197 199 201 204 204 203 180 176 191 152 126 193 204 217 236 223 200 210 227 225 227 231 233 229 229 231 231 230 229 229 229
189 190 190 189 186 183 181 178 177 176 176 176 173 177 189 197 198 195 193 192 188 180 177 180 187 186 186 192 194 195 196 195 193 194 198 203 207 209 209 209 207 207 208 204 198 198 199 207 212 206 205 206 204 204 205 202 200 197 195 199 205 208 210 197 163 167 165 183 223 215 232 245 243 240 222 208 202 199 208 222 226 227 230 231 229 228 230 234
191 192 188 187 185 183 181 178 177 175 177 179 179 186 197 200 200 198 195 193 189 182 177 175 183 188 187 191 194 195 196 196 194 194 197 201 207 211 211 212 214 212 212 211 207 205 203 203 208 203 202 204 202 202 203 203 204 200 199 203 205 205 210 208 179 118 168 238 239 225 241 250 247 240 218 214 220 222 222 226 227 225 224 226 227 227 231 238
191 192 189 186 184 183 180 177 177 176 177 183 188 194 200 201 202 201 199 195 188 183 184 180 183 191 192 193 195 196 196 196 195 196 198 200 206 212 210 211 215 214 215 215 213 213 209 201 200 200 200 202 201 200 200 203 208 207 208 209 203 197 205 202 190 164 194 222 269 236 244 251 245 236 230 230 225 224 231 237 237 227 218 218 223 228 232 236
189 190 189 186 182 182 180 176 176 176 178 186 193 199 201 201 203 202 201 198 190 185 189 188 188 192 196 199 198 196 198 200 199 199 199 202 207 212 212 213 214 213 215 216 215 216 213 205 197 198 199 198 198 199 199 201 204 206 210 209 205 205 204 198 200 206 196 201 247 247 243 254 255 249 244 239 221 210 220 228 229 222 216 216 220 226 229 231
189 188 188 185 182 180 179 176 176 177 182 191 196 199 201 201 202 200 198 198 195 191 191 194 196 194 196 201 202 201 201 203 205 204 205 208 210 213 214 213 214 214 213 215 216 217 216 212 204 197 196 197 200 203 205 205 204 202 203 202 203 206 201 198 211 216 209 191 197 239 249 245 258 264 238 219 214 216 222 225 224 219 216 217 219 223 230 237
189 187 186 185 182 179 177 176 178 180 186 194 197 199 201 201 200 198 197 197 198 198 198 198 201 201 199 200 202 204 203 204 207 209 210 213 214 217 218 216 216 215 212 211 214 215 215 214 209 198 194 199 205 208 208 209 209 208 208 207 206 206 200 189 208 217 216 216 205 208 272 264 262 267 220 194 198 210 218 221 222 219 219 222 224 230 239 244
188 187 185 184 181 179 178 178 181 185 190 195 197 199 201 199 198 198 199 198 198 200 201 201 205 207 205 203 204 206 206 207 209 210 214 218 220 221 222 222 221 219 217 215 215 215 215 212 207 202 202 205 208 211 210 210 213 214 216 216 214 213 209 204 209 216 212 215 223 230 279 269 260 244 202 184 187 200 214 224 225 222 223 225 227 232 237 241
187 186 185 185 182 180 179 180 183 188 193 196 197 199 200 198 197 197 198 198 199 201 202 203 206 208 209 208 207 207 208 209 212 215 217 220 222 222 222 224 222 219 218 218 215 213 213 211 203 193 200 206 207 213 215 213 214 216 219 221 219 220 219 216 222 225 209 207 218 218 262 257 254 246 230 225 226 229 234 232 222 217 222 224 226 228 230 232
185 182 182 183 183 182 183 185 187 190 194 196 196 198 200 199 198 198 199 199 200 201 204 206 207 208 210 211 212 213 210 209 213 218 219 220 222 222 221 223 223 219 218 219 218 216 212 209 201 178 160 203 208 215 216 214 216 218 220 221 220 222 221 218 225 229 218 222 221 207 245 254 255 255 249 245 243 238 227 217 211 212 218 223 225 225 221 218
182 176 178 182 184 185 188 192 192 192 195 196 196 198 200 199 199 201 202 202 203 204 205 207 209 210 212 212 214 217 216 215 215 218 220 221 222 222 221 221 222 221 222 223 223 221 213 208 205 193 172 185 201 211 217 216 216 217 220 220 220 223 222 222 224 222 225 234 225 217 240 253 253 253 248 231 220 218 204 202 209 212 217 223 225 222 214 207
181 174 174 180 185 189 193 196 196 195 197 197 197 199 200 199 199 199 200 202 205 206 207 208 209 210 211 211 212 214 216 217 219 220 221 222 223 223 221 220 220 219 220 221 221 220 215 212 213 211 209 214 223 229 230 224 217 218 222 222 222 223 223 223 220 220 228 232 228 233 242 249 250 249 237 205 198 212 203 198 206 212 216 222 223 218 211 204
183 178 177 178 182 191 196 198 198 199 200 199 198 199 200 200 198 197 197 200 204 206 207 209 210 210 210 210 209 210 212 214 217 220 222 223 224 225 224 222 220 217 215 217 218 217 215 215 218 220 222 227 232 235 235 230 226 227 228 225 223 222 222 221 219 226 231 226 232 245 247 247 248 248 241 230 225 224 213 202 208 216 219 220 219 218 217 211
183 181 183 183 184 190 196 198 200 202 202 200 200 201 201 200 199 198 197 198 201 205 206 207 210 212 213 213 210 208 207 209 213 217 219 221 222 223 222 220 219 218 213 209 211 214 216 218 222 224 228 232 233 233 235 233 233 234 234 232 229 225 223 223 225 231 232 228 242 255 254 252 254 253 249 246 238 225 214 209 219 224 220 221 223 228 232 228
186 183 188 190 190 192 195 197 199 201 203 201 200 202 202 201 201 201 201 199 199 203 206 208 210 212 213 214 214 211 209 209 211 213 215 218 218 219 219 216 215 215 213 207 206 209 214 220 224 226 231 234 234 234 237 237 236 235 235 237 236 233 231 232 236 239 237 240 252 259 257 257 260 260 257 252 238 223 217 220 232 230 223 226 235 239 240 241
189 190 192 193 195 197 197 197 199 201 203 202 201 203 204 203 202 202 202 202 200 201 204 209 211 211 210 212 214 216 217 219 220 218 217 217 216 215 215 215 215 213 210 208 206 205 210 218 222 224 229 233 233 234 236 237 237 237 235 234 234 235 237 239 243 243 239 242 252 254 254 258 261 260 259 255 241 227 222 229 235 230 225 231 241 243 243 245
188 192 196 197 199 201 199 199 200 201 201 202 203 204 204 204 204 203 202 204 205 204 204 207 210 210 209 210 213 217 221 225 227 228 226 225 224 222 220 219 219 214 209 208 207 207 209 213 216 218 225 231 231 232 234 235 235 235 233 231 230 232 234 237 240 241 237 240 247 247 249 256 258 256 256 254 247 236 230 229 227 223 227 237 246 248 247 246
185 189 194 197 199 202 203 200 200 202 204 204 204 205 205 205 204 203 202 203 205 207 207 207 208 209 209 209 211 214 216 220 223 225 228 230 229 230 229 228 226 222 215 211 209 209 210 213 214 212 217 228 230 230 232 233 230 231 231 232 233 235 238 240 240 241 239 240 243 244 248 256 259 258 257 255 253 249 243 238 235 235 240 247 252 252 250 249
Height
3043 3049 3054 3058 3061 3066 3070 3074 3078 3083 3088 3092 3095 3099 3103 3107 3111 3114 3117 3120 3122 3125 3127 3130 3132 3134 3136 3138 3139 3140 3141 3142 3144 3145 3146 3150 3152 3152 3153 3156 3159 3161 3163 3165 3167 3169 3170 3171 3174 3176 3178 3179 3181 3183 3185 3187 3188 3189 3190 3191 3192 3193 3194 3195 3196 3196 3196 3196 3197 3198 3199 3200 3200 3201 3202 3203 3204 3204 3205 3205 3206 3207 3207 3208 3208 3209 3210 3211
3039 3044 3050 3054 3058 3063 3067 3071 3075 3080 3085 3089 3093 3096 3100 3105 3109 3112 3115 3118 3121 3123 3126 3128 3131 3133 3135 3136 3138 3139 3140 3142 3143 3143 3146 3150 3150 3150 3152 3154 3157 3159 3162 3164 3167 3168 3170 3171 3173 3175 3177 3179 3181 3183 3184 3186 3187 3188 3189 3190 3191 3192 3193 3194 3195 3195 3196 3196 3196 3197 3198 3199 3200 3201 3202 3202 3203 3204 3204 3205 3206 3206 3207 3207 3208 3209 3209 3210
3035 3040 3046 3050 3055 3059 3063 3067 3071 3077 3082 3086 3090 3094 3098 3103 3107 3110 3113 3116 3119 3122 3124 3127 3129 3131 3134 3135 3137 3138 3139 3140 3139 3141 3146 3148 3148 3149 3150 3154 3156 3159 3161 3162 3165 3167 3169 3170 3172 3175 3177 3178 3180 3182 3184 3185 3186 3187 3188 3190 3191 3192 3193 3193 3194 3195 3195 3195 3196 3196 3197 3198 3199 3200 3201 3201 3202 3203 3204 3204 3205 3206 3207 3207 3207 3208 3209 3210
3031 3036 3042 3047 3051 3056 3060 3064 3068 3073 3078 3083 3087 3091 3096 3100 3104 3108 3111 3114 3117 3120 3123 3126 3128 3130 3133 3134 3135 3136 3137 3137 3136 3140 3144 3144 3146 3148 3149 3153 3156 3158 3160 3161 3163 3165 3167 3169 3171 3174 3176 3178 3179 3181 3182 3184 3185 3186 3188 3189 3190 3191 3192 3193 3194 3194 3195 3195 3196 3196 3197 3197 3198 3199 3200 3201 3201 3202 3203 3204 3204 3205 3205 3206 3206 3207 3208 3209
3028 3033 3038 3043 3048 3053 3057 3062 3066 3071 3076 3080 3085 3089 3094 3098 3102 3106 3109 3112 3115 3118 3121 3124 3127 3129 3131 3132 3134 3135 3136 3136 3135 3138 3141 3141 3145 3147 3150 3153 3155 3157 3159 3161 3163 3164 3167 3169 3171 3173 3175 3176 3178 3179 3181 3183 3184 3186 3187 3188 3190 3191 3192 3192 3193 3194 3195 3195 3196 3196 3196 3197 3198 3199 3199 3200 3201 3202 3202 3203 3203 3203 3204 3204 3205 3206 3207 3208
3025 3029 3034 3039 3045 3049 3054 3059 3063 3068 3073 3078 3082 3087 3091 3096 3100 3104 3107 3110 3113 3117 3120 3123 3125 3127 3129 3131 3132 3133 3134 3135 3134 3135 3137 3139 3143 3146 3150 3153 3155 3157 3158 3160 3162 3164 3166 3168 3170 3172 3173 3175 3177 3178 3180 3182 3184 3185 3187 3188 3189 3190 3191 3192 3193 3194 3194 3195 3195 3196 3196 3196 3197 3198 3199 3199 3200 3200 3201 3202 3203 3203 3203 3204 3205 3206 3207 3208
3022 3026 3031 3036 3041 3046 3051 3056 3061 3066 3071 3075 3080 3084 3089 3094 3098 3101 3105 3108 3111 3115 3118 3121 3123 3125 3127 3128 3130 3131 3132 3134 3135 3135 3136 3138 3142 3146 3149 3152 3154 3156 3157 3159 3161 3164 3166 3167 3169 3171 3173 3175 3176 3178 3180 3182 3183 3185 3186 3187 3188 3190 3191 3191 3192 3193 3194 3194 3195 3195 3196 3196 3197 3197 3198 3199 3199 3199 3200 3201 3202 3203 3204 3204 3205 3206 3206 3207
3019 3023 3027 3032 3037 3043 3048 3054 3059 3063 3068 3073 3077 3082 3087 3091 3095 3099 3103 3106 3109 3113 3117 3120 3121 3123 3125 3126 3128 3130 3131 3133 3135 3136 3137 3138 3141 3145 3148 3151 3153 3155 3156 3159 3161 3164 3166 3167 3168 3170 3172 3174 3176 3177 3179 3181 3182 3184 3185 3186 3188 3189 3190 3191 3192 3192 3193 3194 3194 3195 3195 3196 3196 3196 3197 3197 3197 3199 3200 3200 3202 3203 3203 3204 3205 3205 3206 3207
3016 3020 3024 3029 3034 3040 3046 3051 3056 3061 3066 3071 3075 3080 3085 3089 3093 3097 3100 3104 3107 3111 3115 3118 3119 3121 3123 3125 3128 3129 3130 3133 3135 3136 3137 3139 3141 3145 3148 3151 3153 3154 3156 3158 3160 3162 3164 3166 3168 3170 3172 3174 3175 3177 3178 3180 3181 3183 3184 3186 3187 3188 3189 3190 3191 3192 3192 3193 3194 3194 3195 3195 3195 3196 3196 3196 3197 3198 3199 3200 3201 3202 3203 3203 3204 3204 3205 3206
3013 3017 3021 3026 3031 3037 3043 3049 3054 3059 3064 3069 3074 3079 3083 3086 3090 3094 3098 3101 3105 3110 3113 3115 3117 3119 3121 3124 3126 3127 3130 3133 3135 3136 3138 3139 3141 3144 3147 3150 3152 3154 3155 3157 3158 3160 3163 3166 3168 3169 3171 3173 3174 3176 3177 3179 3180 3182 3183 3185 3186 3187 3188 3189 3190 3191 3192 3192 3193 3194 3194 3194 3194 3195 3195 3195 3196 3198 3198 3199 3200 3201 3202 3202 3203 3204 3204 3205
3011 3014 3019 3023 3029 3034 3040 3046 3051 3056 3062 3067 3072 3076 3080 3084 3088 3092 3095 3099 3103 3107 3111 3113 3115 3118 3120 3122 3124 3126 3130 3132 3134 3136 3137 3139 3141 3144 3147 3149 3151 3153 3154 3155 3158 3160 3163 3164 3166 3168 3170 3171 3173 3174 3176 3177 3179 3181 3182 3184 3185 3186 3187 3188 3189 3190 3191 3191 3192 3192 3193 3193 3193 3194 3195 3195 3196 3197 3198 3198 3199 3200 3201 3202 3202 3203 3204 3204
3008 3012 3016 3021 3026 3032 3038 3043 3049 3055 3060 3065 3070 3074 3078 3082 3086 3089 3093 3097 3101 3105 3108 3110 3113 3117 3119 3120 3122 3126 3129 3130 3133 3135 3136 3138 3140 3142 3145 3147 3149 3151 3153 3154 3157 3159 3161 3162 3164 3166 3168 3169 3171 3173 3174 3176 3178 3180 3181 3182 3184 3185 3186 3186 3188 3189 3190 3190 3191 3192 3192 3191 3192 3194 3194 3194 3195 3196 3197 3197 3198 3199 3200 3201 3201 3202 3203 3204
3006 3010 3014 3019 3024 3030 3035 3041 3047 3053 3058 3063 3067 3072 3076 3080 3084 3088 3091 3095 3099 3103 3106 3109 3112 3115 3117 3119 3122 3125 3127 3129 3131 3133 3134 3136 3138 3140 3143 3144 3147 3149 3151 3153 3155 3157 3159 3161 3162 3165 3167 3168 3170 3171 3172 3174 3176 3178 3180 3181 3182 3183 3184 3185 3186 3187 3188 3189 3190 3191 3191 3190 3191 3193 3193 3193 3194 3195 3196 3196 3197 3198 3199 3199 3200 3201 3202 3203
3004 3008 3012 3017 3022 3027 3033 3039 3044 3050 3055 3060 3065 3069 3073 3078 3082 3086 3090 3094 3098 3101 3104 3108 3111 3113 3115 3118 3120 3123 3125 3128 3130 3131 3133 3134 3136 3138 3141 3143 3145 3148 3150 3152 3153 3155 3157 3159 3161 3163 3165 3167 3168 3170 3171 3173 3174 3176 3178 3179 3180 3181 3182 3183 3185 3186 3187 3188 3188 3190 3189 3189 3190 3191 3191 3192 3193 3194 3194 3195 3196 3196 3197 3198 3199 3200 3201 3202
3002 3005 3010 3014 3019 3025 3031 3037 3042 3047 3053 3058 3062 3066 3071 3075 3080 3084 3088 3092 3096 3100 3103 3106 3109 3111 3114 3116 3118 3120 3123 3125 3127 3130 3131 3133 3135 3137 3139 3142 3144 3146 3148 3150 3152 3154 3155 3157 3159 3161 3163 3165 3167 3169 3170 3171 3172 3174 3176 3176 3177 3180 3180 3181 3183 3184 3185 3186 3187 3188 3188 3187 3189 3190 3190 3191 3192 3193 3193 3194 3194 3195 3196 3197 3198 3199 3199 3200
3000 3003 3008 3012 3017 3023 3028 3034 3040 3045 3050 3055 3060 3064 3068 3073 3078 3082 3087 3091 3095 3098 3101 3104 3107 3110 3112 3114 3115 3117 3120 3123 3125 3128 3130 3132 3134 3136 3138 3140 3142 3145 3147 3149 3151 3153 3154 3156 3158 3159 3161 3163 3165 3167 3169 3170 3170 3171 3172 3173 3175 3178 3179 3180 3181 3182 3184 3185 3185 3186 3186 3186 3187 3188 3189 3190 3190 3191 3192 3192 3193 3193 3194 3195 3196 3197 3198 3199
2998 3002 3006 3010 3015 3021 3026 3032 3038 3043 3048 3053 3057 3062 3067 3072 3076 3081 3085 3089 3093 3096 3099 3102 3106 3109 3110 3110 3112 3114 3118 3121 3124 3126 3129 3131 3132 3134 3136 3138 3141 3143 3145 3148 3150 3152 3153 3154 3156 3158 3160 3162 3163 3165 3167 3167 3166 3168 3170 3172 3174 3176 3177 3178 3179 3180 3182 3183 3183 3184 3184 3185 3186 3187 3188 3188 3189 3189 3190 3191 3191 3192 3192 3193 3194 3195 3196 3197
2996 3000 3004 3008 3013 3019 3024 3030 3036 3041 3046 3051 3056 3061 3065 3069 3074 3079 3083 3087 3090 3094 3098 3100 3103 3105 3105 3104 3107 3111 3116 3120 3122 3124 3127 3129 3131 3133 3135 3137 3140 3142 3144 3146 3148 3150 3151 3153 3155 3156 3158 3159 3161 3162 3163 3162 3163 3166 3169 3171 3173 3174 3175 3176 3177 3178 3179 3181 3182 3183 3182 3183 3185 3186 3186 3187 3187 3188 3188 3189 3189 3190 3191 3191 3192 3193 3194 3195
2993 2998 3002 3007 3012 3017 3023 3029 3034 3039 3044 3049 3053 3058 3063 3067 3072 3077 3080 3083 3085 3087 3090 3091 3093 3096 3098 3100 3105 3110 3115 3118 3120 3122 3125 3127 3129 3131 3134 3136 3138 3140 3142 3144 3145 3147 3149 3151 3153 3153 3154 3155 3157 3159 3161 3163 3165 3167 3168 3169 3170 3172 3173 3174 3175 3176 3178 3179 3180 3181 3180 3181 3183 3184 3185 3185 3185 3186 3186 3186 3187 3188 3189 3190 3190 3191 3193 3194
2991 2996 3001 3005 3010 3016 3022 3028 3032 3038 3042 3046 3049 3052 3056 3060 3065 3070 3075 3079 3081 3082 3083 3085 3089 3095 3098 3101 3106 3110 3113 3116 3118 3120 3123 3126 3128 3130 3132 3134 3137 3139 3141 3142 3144 3146 3148 3149 3149 3149 3151 3154 3157 3160 3162 3163 3165 3167 3168 3168 3169 3170 3171 3173 3174 3175 3177 3178 3178 3179 3179 3179 3181 3182 3183 3183 3182 3183 3184 3185 3186 3187 3188 3188 3189 3190 3191 3192
2989 2994 2999 3004 3009 3014 3021 3026 3031 3036 3040 3043 3046 3049 3050 3052 3054 3056 3063 3071 3078 3081 3083 3087 3093 3097 3100 3102 3106 3109 3112 3114 3117 3119 3122 3124 3127 3129 3131 3132 3134 3136 3138 3141 3143 3145 3146 3146 3147 3149 3152 3155 3158 3159 3161 3163 3164 3165 3166 3167 3168 3169 3170 3171 3173 3173 3175 3176 3176 3177 3176 3176 3178 3180 3181 3181 3180 3180 3182 3183 3184 3185 3186 3186 3187 3188 3189 3190
2988 2992 2998 3003 3007 3013 3020 3025 3030 3034 3037 3041 3045 3048 3051 3054 3056 3058 3061 3067 3074 3080 3084 3088 3092 3096 3099 3101 3104 3107 3109 3111 3114 3118 3120 3123 3125 3127 3129 3130 3132 3134 3137 3139 3141 3143 3144 3144 3146 3150 3152 3155 3156 3158 3160 3161 3162 3163 3164 3165 3166 3167 3168 3170 3171 3172 3173 3174 3174 3174 3174 3174 3175 3177 3178 3178 3177 3178 3180 3181 3182 3183 3183 3184 3185 3186 3187 3188
2986 2991 2996 3001 3007 3013 3018 3023 3028 3031 3035 3039 3043 3048 3052 3057 3062 3067 3069 3071 3076 3081 3085 3089 3092 3095 3098 3100 3102 3105 3107 3110 3112 3114 3118 3121 3123 3125 3127 3129 3131 3134 3136 3137 3139 3140 3141 3143 3146 3149 3151 3153 3155 3156 3158 3160 3161 3162 3162 3163 3164 3165 3167 3168 3169 3170 3171 3172 3172 3173 3172 3171 3173 3173 3174 3176 3175 3176 3177 3178 3179 3180 3181 3182 3183 3184 3185 3186
2985 2990 2995 3000 3006 3011 3016 3022 3025 3028 3033 3038 3043 3048 3053 3057 3062 3067 3071 3074 3078 3081 3086 3089 3092 3095 3098 3100 3102 3104 3106 3110 3112 3113 3116 3119 3122 3124 3126 3129 3131 3133 3135 3136 3138 3139 3140 3143 3146 3148 3150 3152 3153 3155 3157 3158 3159 3160 3161 3162 3163 3164 3166 3167 3168 3169 3170 3171 3171 3172 3171 3168 3169 3170 3171 3173 3173 3173 3174 3175 3176 3177 3178 3180 3180 3181 3182 3183
2984 2988 2994 2999 3004 3009 3014 3019 3022 3026 3032 3037 3042 3047 3052 3057 3061 3065 3069 3074 3078 3081 3084 3087 3091 3094 3097 3100 3101 3103 3106 3109 3111 3113 3116 3118 3121 3123 3125 3128 3130 3132 3133 3136 3138 3139 3141 3144 3145 3147 3148 3150 3152 3153 3155 3157 3158 3159 3159 3160 3162 3163 3165 3166 3167 3168 3169 3169 3169 3171 3171 3166 3165 3167 3168 3169 3170 3171 3172 3172 3173 3175 3175 3177 3178 3179 3179 3180
2982 2987 2993 2997 3002 3007 3011 3015 3020 3026 3030 3035 3041 3046 3051 3055 3060 3065 3069 3074 3077 3079 3081 3084 3088 3091 3094 3097 3099 3103 3106 3108 3110 3113 3115 3117 3119 3121 3124 3126 3128 3130 3132 3135 3137 3138 3140 3142 3144 3145 3147 3148 3150 3151 3153 3156 3157 3157 3157 3159 3160 3162 3163 3164 3166 3167 3167 3167 3167 3169 3169 3165 3163 3165 3166 3166 3167 3168 3169 3170 3171 3171 3172 3174 3175 3176 3177 3177
2981 2986 2991 2996 3001 3004 3007 3011 3018 3023 3027 3033 3040 3045 3050 3055 3060 3064 3070 3076 3076 3076 3079 3082 3085 3089 3092 3095 3098 3100 3102 3104 3108 3111 3113 3116 3118 3120 3122 3123 3125 3128 3130 3133 3135 3135 3137 3140 3141 3143 3145 3147 3148 3149 3152 3154 3155 3155 3156 3157 3159 3160 3162 3163 3164 3165 3165 3166 3166 3166 3167 3166 3162 3162 3163 3164 3165 3165 3166 3167 3168 3168 3169 3171 3172 3173 3174 3175
2980 2985 2990 2995 3000 3003 3008 3013 3017 3021 3027 3033 3039 3045 3049 3054 3060 3063 3068 3073 3072 3072 3077 3080 3083 3087 3091 3094 3096 3097 3099 3102 3104 3106 3110 3113 3116 3118 3120 3122 3124 3126 3128 3131 3131 3133 3135 3137 3139 3142 3143 3144 3146 3148 3151 3153 3154 3154 3155 3156 3158 3159 3161 3162 3163 3164 3164 3165 3165 3164 3166 3165 3159 3158 3161 3161 3162 3163 3163 3164 3165 3165 3167 3168 3169 3170 3171 3172
2979 2984 2988 2993 2998 3003 3010 3016 3020 3024 3029 3034 3039 3045 3050 3055 3060 3064 3068 3068 3067 3069 3073 3077 3081 3084 3087 3091 3093 3095 3098 3100 3102 3104 3107 3111 3113 3116 3118 3121 3124 3126 3128 3129 3130 3132 3134 3137 3139 3141 3142 3143 3145 3147 3149 3151 3152 3153 3154 3155 3157 3158 3159 3161 3162 3163 3164 3164 3162 3162 3164 3164 3157 3155 3158 3159 3159 3160 3161 3162 3162 3162 3164 3165 3166 3167 3168 3169
2977 2982 2987 2991 2996 3001 3007 3014 3021 3026 3030 3035 3040 3045 3051 3056 3059 3063 3066 3063 3062 3066 3070 3074 3078 3080 3083 3087 3089 3092 3095 3098 3100 3103 3105 3108 3111 3114 3117 3120 3123 3125 3127 3128 3130 3132 3134 3136 3138 3139 3140 3141 3144 3146 3147 3149 3150 3152 3153 3154 3156 3157 3158 3160 3161 3162 3163 3161 3159 3160 3162 3163 3158 3152 3153 3156 3156 3157 3159 3159 3159 3159 3161 3162 3163 3164 3164 3165
2976 2981 2986 2991 2996 3001 3005 3010 3017 3023 3028 3033 3039 3044 3050 3054 3057 3059 3060 3058 3059 3063 3066 3070 3074 3077 3080 3082 3085 3089 3092 3095 3098 3100 3102 3105 3108 3110 3114 3117 3119 3123 3125 3126 3128 3131 3133 3134 3135 3136 3137 3139 3141 3143 3145 3147 3148 3150 3151 3152 3155 3157 3159 3160 3160 3162 3161 3157 3157 3158 3159 3161 3157 3150 3151 3153 3153 3155 3156 3156 3157 3157 3158 3159 3160 3161 3161 3162
2975 2980 2986 2991 2996 3002 3006 3011 3015 3021 3027 3031 3037 3042 3045 3050 3054 3053 3052 3054 3057 3059 3061 3064 3069 3073 3076 3080 3083 3086 3089 3092 3095 3097 3099 3101 3104 3107 3109 3112 3114 3118 3121 3123 3125 3128 3130 3131 3132 3134 3135 3137 3139 3141 3142 3144 3146 3148 3149 3151 3153 3156 3158 3159 3159 3160 3158 3155 3155 3156 3158 3157 3151 3147 3150 3152 3152 3153 3153 3154 3155 3155 3156 3157 3157 3158 3159 3159
2974 2979 2985 2990 2995 3001 3007 3012 3016 3021 3026 3031 3036 3040 3043 3045 3045 3043 3045 3049 3051 3053 3057 3061 3066 3070 3075 3078 3081 3084 3087 3091 3093 3096 3098 3100 3102 3105 3107 3110 3112 3114 3116 3119 3123 3126 3128 3129 3130 3131 3132 3134 3137 3137 3138 3140 3142 3144 3146 3148 3149 3152 3156 3157 3157 3158 3156 3153 3154 3156 3157 3153 3146 3145 3148 3149 3151 3151 3150 3152 3152 3153 3154 3154 3155 3156 3156 3157
2973 2978 2982 2987 2993 2999 3005 3010 3015 3019 3025 3029 3033 3037 3041 3040 3037 3038 3042 3045 3047 3050 3054 3058 3063 3069 3074 3076 3078 3082 3085 3088 3091 3094 3096 3098 3100 3102 3105 3108 3110 3112 3114 3118 3121 3123 3125 3126 3126 3128 3130 3132 3134 3135 3136 3137 3139 3141 3144 3146 3146 3147 3150 3151 3152 3152 3151 3151 3153 3155 3155 3148 3144 3144 3145 3146 3147 3147 3148 3150 3151 3151 3152 3152 3153 3154 3154 3155
2972 2977 2981 2985 2991 2996 3002 3007 3013 3018 3023 3026 3030 3033 3033 3031 3030 3033 3037 3041 3044 3047 3052 3057 3062 3067 3071 3074 3077 3080 3082 3084 3088 3092 3094 3095 3097 3099 3101 3104 3106 3109 3112 3115 3117 3119 3121 3122 3122 3125 3127 3129 3131 3133 3135 3137 3139 3140 3142 3144 3145 3145 3146 3147 3149 3149 3149 3151 3151 3151 3148 3142 3142 3144 3143 3144 3144 3144 3146 3148 3149 3149 3150 3150 3151 3152 3152 3153
2970 2974 2979 2984 2989 2994 2999 3005 3010 3016 3020 3022 3026 3027 3024 3022 3024 3028 3032 3036 3040 3043 3048 3056 3061 3064 3067 3071 3075 3077 3080 3082 3085 3088 3091 3093 3095 3096 3099 3101 3103 3106 3108 3111 3113 3116 3118 3120 3121 3123 3125 3127 3129 3130 3133 3135 3136 3138 3140 3140 3141 3143 3145 3146 3148 3149 3150 3149 3147 3145 3142 3140 3142 3143 3143 3144 3144 3144 3145 3145 3147 3148 3148 3149 3149 3150 3151 3151
2966 2970 2975 2981 2987 2992 2997 3003 3008 3013 3018 3020 3020 3019 3018 3019 3023 3027 3030 3035 3039 3043 3046 3051 3057 3060 3063 3066 3070 3073 3077 3080 3083 3085 3087 3090 3092 3093 3096 3099 3101 3104 3106 3109 3111 3113 3115 3117 3119 3121 3123 3125 3127 3129 3131 3132 3134 3135 3136 3137 3140 3143 3145 3145 3147 3149 3150 3148 3144 3141 3140 3139 3141 3141 3141 3142 3143 3143 3144 3144 3145 3146 3146 3147 3147 3148 3149 3150
2963 2968 2973 2978 2984 2990 2995 3001 3006 3010 3015 3017 3016 3014 3015 3019 3023 3027 3030 3034 3039 3043 3045 3047 3052 3056 3059 3062 3066 3070 3073 3076 3079 3081 3084 3086 3088 3089 3092 3096 3098 3102 3105 3107 3110 3111 3113 3116 3118 3119 3121 3123 3125 3127 3129 3130 3132 3133 3134 3136 3139 3141 3142 3143 3145 3146 3147 3146 3142 3139 3138 3137 3137 3138 3139 3140 3141 3141 3142 3142 3143 3144 3144 3145 3146 3147 3148 3148
2961 2966 2971 2976 2982 2988 2993 2998 3003 3008 3011 3011 3010 3011 3014 3018 3022 3025 3030 3034 3038 3041 3043 3045 3048 3053 3057 3059 3063 3067 3070 3073 3075 3078 3080 3082 3084 3086 3089 3093 3095 3099 3102 3105 3107 3109 3111 3113 3116 3117 3119 3121 3123 3124 3125 3126 3128 3131 3134 3136 3137 3138 3138 3139 3141 3140 3141 3142 3141 3138 3136 3133 3132 3134 3137 3138 3139 3139 3140 3140 3141 3142 3143 3144 3145 3146 3147 3147
2959 2964 2969 2974 2979 2985 2992 2997 3001 3004 3005 3003 3004 3007 3011 3015 3019 3024 3029 3033 3036 3039 3041 3044 3046 3049 3054 3057 3061 3064 3067 3070 3073 3075 3077 3079 3081 3083 3086 3090 3092 3096 3100 3103 3105 3107 3110 3111 3113 3115 3118 3120 3120 3121 3122 3123 3125 3128 3130 3131 3133 3135 3136 3137 3138 3138 3138 3139 3139 3138 3134 3130 3130 3132 3134 3135 3137 3137 3138 3139 3140 3141 3142 3143 3144 3145 3145 3146
2958 2962 2966 2971 2977 2982 2988 2993 2997 2998 2998 2998 3001 3005 3008 3013 3017 3022 3027 3030 3034 3037 3039 3043 3045 3047 3050 3054 3058 3061 3064 3067 3070 3073 3075 3076 3078 3081 3084 3087 3090 3093 3096 3099 3102 3105 3107 3109 3111 3113 3115 3116 3117 3118 3120 3122 3124 3125 3126 3127 3129 3131 3133 3135 3135 3136 3136 3136 3136 3136 3132 3128 3129 3132 3132 3133 3134 3135 3136 3137 3138 3139 3140 3141 3142 3143 3144 3144
2954 2958 2963 2968 2974 2979 2984 2988 2991 2993 2992 2994 2999 3003 3006 3011 3016 3020 3024 3028 3031 3035 3038 3041 3044 3046 3049 3051 3055 3058 3061 3064 3067 3070 3071 3072 3075 3078 3082 3085 3088 3091 3094 3096 3099 3101 3104 3107 3109 3111 3113 3114 3116 3117 3119 3121 3123 3125 3126 3127 3129 3130 3131 3131 3130 3130 3132 3134 3134 3135 3133 3127 3128 3131 3131 3132 3133 3134 3136 3136 3137 3138 3139 3140 3141 3141 3142 3142
2951 2956 2962 2967 2972 2977 2981 2984 2987 2989 2989 2992 2997 3001 3005 3009 3013 3017 3021 3025 3029 3032 3035 3038 3041 3044 3047 3050 3053 3055 3058 3061 3064 3066 3068 3070 3073 3076 3080 3082 3085 3089 3092 3094 3096 3099 3102 3105 3107 3109 3112 3113 3114 3116 3118 3120 3121 3122 3123 3124 3126 3127 3127 3128 3128 3128 3130 3131 3132 3135 3132 3126 3126 3129 3130 3131 3132 3133 3134 3135 3136 3137 3137 3138 3139 3139 3140 3140
2949 2955 2961 2967 2972 2976 2978 2978 2979 2981 2984 2989 2995 2998 3002 3007 3011 3014 3018 3022 3026 3029 3032 3035 3038 3041 3045 3048 3051 3054 3057 3059 3061 3063 3066 3068 3070 3074 3077 3079 3082 3086 3088 3090 3092 3095 3099 3101 3103 3107 3111 3114 3115 3116 3116 3117 3118 3118 3118 3120 3121 3122 3124 3126 3127 3128 3128 3128 3130 3132 3128 3122 3124 3127 3127 3128 3130 3131 3132 3133 3134 3135 3135 3136 3136 3137 3137 3138
2947 2953 2959 2965 2969 2972 2974 2975 2975 2977 2981 2987 2992 2996 3000 3005 3009 3012 3016 3020 3024 3027 3030 3033 3036 3039 3043 3047 3050 3053 3055 3057 3058 3061 3063 3065 3068 3071 3074 3077 3080 3083 3086 3088 3090 3093 3095 3095 3097 3101 3105 3108 3110 3109 3109 3110 3111 3112 3113 3115 3117 3119 3121 3123 3125 3126 3126 3125 3126 3127 3123 3119 3122 3124 3124 3126 3128 3129 3130 3132 3132 3133 3133 3134 3134 3135 3135 3137
2943 2947 2952 2959 2965 2969 2970 2973 2976 2978 2979 2984 2989 2993 2997 3001 3006 3010 3015 3018 3021 3024 3028 3031 3034 3037 3041 3044 3047 3050 3052 3054 3056 3058 3060 3062 3064 3068 3071 3074 3077 3080 3083 3086 3088 3091 3092 3092 3093 3094 3095 3097 3099 3100 3101 3104 3105 3107 3108 3111 3113 3115 3118 3120 3122 3122 3122 3122 3122 3120 3118 3118 3119 3120 3122 3124 3127 3128 3129 3130 3130 3131 3131 3132 3132 3133 3134 3135
2940 2941 2943 2948 2956 2962 2966 2969 2973 2975 2977 2981 2985 2989 2993 2998 3003 3008 3012 3015 3018 3022 3025 3028 3031 3034 3036 3040 3043 3046 3048 3051 3053 3055 3057 3059 3062 3065 3068 3071 3074 3077 3080 3083 3085 3087 3089 3090 3091 3092 3093 3094 3096 3098 3099 3100 3101 3103 3105 3106 3108 3111 3113 3116 3117 3117 3118 3120 3117 3115 3116 3116 3115 3118 3121 3123 3125 3126 3127 3128 3129 3129 3129 3130 3130 3131 3132 3133
2936 2940 2941 2942 2945 2950 2954 2960 2965 2970 2974 2980 2984 2986 2990 2994 2999 3003 3007 3011 3015 3018 3022 3025 3027 3030 3033 3036 3039 3042 3045 3048 3050 3052 3054 3056 3059 3062 3065 3068 3071 3074 3077 3079 3081 3084 3086 3087 3089 3090 3091 3093 3095 3096 3098 3099 3100 3101 3103 3103 3105 3107 3109 3111 3113 3113 3115 3115 3112 3111 3113 3112 3112 3116 3120 3121 3124 3126 3126 3127 3127 3127 3128 3128 3129 3130 3131 3132
2935 2938 2941 2944 2945 2946 2950 2955 2961 2967 2972 2977 2981 2984 2986 2990 2994 2998 3002 3007 3011 3014 3017 3020 3023 3027 3031 3034 3037 3039 3041 3042 3045 3047 3050 3053 3056 3058 3061 3064 3067 3070 3073 3075 3077 3080 3083 3084 3086 3089 3090 3091 3093 3094 3095 3097 3098 3099 3100 3101 3103 3104 3106 3107 3109 3110 3111 3110 3108 3109 3109 3108 3109 3114 3118 3120 3123 3124 3124 3125 3125 3125 3126 3126 3127 3128 3129 3130
2934 2936 2939 2943 2946 2948 2951 2956 2961 2965 2970 2975 2979 2981 2984 2987 2991 2995 2999 3002 3005 3009 3013 3016 3019 3024 3028 3031 3034 3036 3037 3039 3041 3044 3047 3050 3052 3055 3058 3060 3062 3066 3069 3072 3074 3076 3079 3081 3083 3086 3087 3088 3089 3091 3092 3093 3094 3095 3096 3098 3100 3102 3104 3105 3105 3106 3106 3105 3104 3106 3106 3103 3105 3110 3114 3117 3119 3120 3121 3122 3123 3123 3124 3124 3125 3126 3127 3128
2932 2935 2938 2941 2944 2947 2951 2955 2959 2963 2966 2970 2974 2977 2981 2985 2989 2993 2997 3000 3003 3006 3008 3012 3017 3021 3025 3028 3031 3033 3037 3039 3041 3044 3047 3048 3050 3053 3055 3057 3059 3062 3065 3068 3070 3072 3075 3077 3079 3083 3084 3083 3085 3088 3088 3089 3091 3091 3091 3093 3095 3097 3098 3098 3098 3099 3100 3100 3101 3104 3101 3097 3099 3105 3109 3111 3114 3116 3118 3119 3120 3121 3121 3121 3122 3123 3124 3125
2931 2934 2936 2939 2942 2945 2949 2953 2957 2960 2962 2965 2969 2974 2978 2982 2987 2991 2995 2999 3002 3005 3008 3012 3016 3019 3022 3025 3028 3031 3035 3038 3040 3043 3046 3047 3050 3052 3054 3055 3058 3059 3061 3064 3066 3068 3071 3072 3074 3078 3079 3079 3081 3083 3084 3087 3088 3085 3084 3087 3089 3090 3091 3091 3092 3094 3096 3097 3098 3097 3095 3093 3095 3100 3104 3106 3109 3112 3114 3116 3117 3117 3118 3118 3118 3118 3119 3120